Weather History for Rogers, AR

Change the Weather History Date:

Monday, May 27, 2013

  Actual Average Record
Temperature  
Mean Temperature 76 °F -  
Max Temperature 84 °F 74 °F 91 °F (2012)
Min Temperature 68 °F 56 °F 46 °F (1999)
Cooling Degree Days 11    
Growing Degree Days 26 (Base 50)    
Moisture  
Dew Point 65 °F    
Average Humidity 68    
Maximum Humidity 90    
Minimum Humidity 51    
Precipitation  
Precipitation 0.00 in - - ()
Sea Level Pressure  
Sea Level Pressure 29.91 in    
Wind  
Wind Speed 14 mph (South)    
Max Wind Speed 25 mph    
Max Gust Speed 33 mph    
Visibility 10 miles    
Events      
Averages and records for this station are not official NWS values.
T = Trace of Precipitation, MM = Missing Value Source: NWS Daily Summary

Daily Weather History Graph

Daily Weather History Graph

Search for Another Location

Airport:

Trip Planner

Search our weather history database for the weather conditions in past years. The results will help you decide how hot, cold, wet, or windy it might be!

Date:

Astronomy

May. 27, 2013 Rise Set
Actual Time 6:01 AM CDT 8:25 PM CDT
Civil Twilight 5:32 AM CDT 8:55 PM CDT
Nautical Twilight 4:55 AM CDT 9:31 PM CDT
Astronomical Twilight 4:15 AM CDT 10:12 PM CDT
Moon 11:07 PM CDT (5/27) 8:38 AM CDT (5/27)
Length of Visible Light 15h 22m
Length of Day
14h 23m
Waning Gibbous, 91% of the Moon is Illuminated
May 27
Waning Gibbous
May 31
Last Quarter
Jun 8
New
Jun 16
First Quarter
Jun 23
Full

Hourly Weather History & Observations

Time (CDT) Temp. Heat Index Dew Point Humidity Pressure Visibility Wind Dir Wind Speed Gust Speed Precip Events Conditions
12:57 AM 69.1 °F - 60.1 °F 73% 29.98 in 10.0 mi SSE 11.5 mph - N/A   Clear
1:57 AM 69.1 °F - 62.1 °F 78% 29.98 in 10.0 mi SSE 9.2 mph - N/A   Mostly Cloudy
2:57 AM 69.1 °F - 63.0 °F 81% 29.96 in 10.0 mi SSE 11.5 mph - N/A   Mostly Cloudy
3:57 AM 69.1 °F - 64.0 °F 84% 29.96 in 10.0 mi SSE 9.2 mph - N/A   Scattered Clouds
4:57 AM 68.0 °F - 64.0 °F 87% 29.95 in 10.0 mi SE 9.2 mph - N/A   Clear
5:57 AM 68.0 °F - 64.9 °F 90% 29.94 in 10.0 mi SSE 10.4 mph - N/A   Clear
6:57 AM 69.1 °F - 64.9 °F 87% 29.94 in 10.0 mi SSE 10.4 mph - N/A   Scattered Clouds
7:29 AM 71.6 °F - 66.2 °F 83% 29.98 in 10.0 mi South 12.7 mph - N/A   Mostly Cloudy
7:57 AM 72.0 °F - 66.0 °F 81% 29.94 in 10.0 mi South 12.7 mph - N/A   Overcast
8:57 AM 73.9 °F - 66.0 °F 76% 29.94 in 10.0 mi South 15.0 mph 27.6 mph N/A   Overcast
9:57 AM 75.9 °F - 66.0 °F 71% 29.93 in 10.0 mi South 18.4 mph 27.6 mph N/A   Overcast
10:57 AM 79.0 °F - 66.9 °F 66% 29.91 in 10.0 mi SSW 18.4 mph 29.9 mph N/A   Mostly Cloudy
11:00 AM 78.8 °F - 66.2 °F 65% 29.95 in 10.0 mi South 24.2 mph 28.8 mph N/A   Scattered Clouds
11:10 AM 80.6 °F 82.7 °F 66.2 °F 61% 29.95 in 10.0 mi South 19.6 mph 29.9 mph N/A   Mostly Cloudy
11:26 AM 80.6 °F 82.7 °F 66.2 °F 61% 29.96 in 10.0 mi South 19.6 mph 28.8 mph N/A   Scattered Clouds
11:33 AM 80.6 °F 82.7 °F 66.2 °F 61% 29.95 in 10.0 mi South 25.3 mph 33.4 mph N/A   Mostly Cloudy
11:45 AM 80.6 °F 82.7 °F 66.2 °F 61% 29.96 in 10.0 mi SSW 18.4 mph 28.8 mph N/A   Scattered Clouds
11:57 AM 82.4 °F 84.6 °F 66.2 °F 58% 29.97 in 10.0 mi South 19.6 mph 28.8 mph N/A   Mostly Cloudy
11:59 AM 82.0 °F 84.1 °F 66.0 °F 58% 29.93 in 10.0 mi South 19.6 mph 28.8 mph N/A   Mostly Cloudy
12:08 PM 80.6 °F 82.7 °F 66.2 °F 61% 29.97 in 10.0 mi South 17.3 mph 25.3 mph N/A   Mostly Cloudy
12:57 PM 84.0 °F 86.3 °F 66.0 °F 55% 29.91 in 10.0 mi South 24.2 mph 28.8 mph N/A   Partly Cloudy
1:57 PM 82.9 °F 84.4 °F 64.0 °F 53% 29.90 in 10.0 mi South 19.6 mph 29.9 mph N/A   Partly Cloudy
2:57 PM 84.0 °F 85.4 °F 64.0 °F 51% 29.86 in 10.0 mi South 20.7 mph 26.5 mph N/A   Clear
3:57 PM 82.9 °F 85.0 °F 66.0 °F 56% 29.85 in 10.0 mi South 19.6 mph 28.8 mph N/A   Clear
4:57 PM 81.0 °F 82.7 °F 64.9 °F 58% 29.84 in 10.0 mi SSE 13.8 mph - N/A   Partly Cloudy
5:57 PM 80.1 °F 81.9 °F 64.9 °F 60% 29.85 in 10.0 mi South 12.7 mph 21.9 mph N/A   Overcast
6:57 PM 79.0 °F - 64.9 °F 62% 29.84 in 10.0 mi SSE 12.7 mph - N/A   Mostly Cloudy
7:57 PM 78.1 °F - 64.0 °F 62% 29.82 in 10.0 mi South 15.0 mph 21.9 mph N/A   Partly Cloudy
8:57 PM 75.0 °F - 63.0 °F 66% 29.81 in 10.0 mi SSE 15.0 mph 21.9 mph N/A   Clear
9:57 PM 73.9 °F - 63.0 °F 68% 29.84 in 10.0 mi South 16.1 mph 24.2 mph N/A   Partly Cloudy
10:57 PM 73.9 °F - 63.0 °F 68% 29.83 in 10.0 mi South 15.0 mph 26.5 mph N/A   Clear
11:57 PM 73.9 °F - 64.0 °F 71% 29.83 in 10.0 mi South 15.0 mph 21.9 mph N/A   Clear